Miscellaneous Local Product
Issued by NWS Hastings, NE

Home | Current Version | Previous Version | Graphics & Text | Print | Product List | Glossary On
Versions: 1 2 3 4 5 6 7 8 9 10 11 12 13 14 15 16 17 18 19 20 21 22 23 24 25 26 27 28 29 30 31 32 33 34 35 36 37 38 39 40 41 42 43 44 45 46 47 48 49 50
000
AXUS43 KGID 212002
MISGRI

GID CWA HOURLY WEATHER ROUNDUP
NATIONAL WEATHER SERVICE HASTINGS NE
300 PM CDT SAT OCT 21 2017

NOTE: "FAIR" INDICATES FEW OR NO CLOUDS BELOW 12,000 FEET WITH NO
SIGNIFICANT WEATHER AND/OR OBSTRUCTIONS TO VISIBILITY.

...SOUTH CENTRAL NEBRASKA...

CITY           SKY/WX    TMP DP  RH WIND       PRES   REMARKS
GRAND ISLAND   CLOUDY    58  40  51 NW23G32   29.85R
KEARNEY        PTSUNNY   55  39  54 NW25G32   29.88R
HASTINGS       CLOUDY    60  40  47 N24       29.85R
ORD            CLOUDY    50  39  66 NW22G30   29.86R
YORK           CLOUDY    59  39  47 NW22G32   29.81R
AURORA         CLOUDY    58  38  47 NW24G31   29.83R
LEXINGTON      CLOUDY    54  41  60 NW18G25   29.92R
HOLDREGE       CLOUDY    53  40  62 NW15G28   29.91R
HEBRON         CLOUDY    64  42  44 NW16G29   29.82R

...NEBRASKA PANHANDLE...

CITY           SKY/WX    TMP DP  RH WIND       PRES   REMARKS
CHADRON        SUNNY     58  12  16 NW26G37   29.90S
ALLIANCE       MOSUNNY   56  19  23 NW21G30   29.90S
SCOTTSBLUFF    SUNNY     58  15  18 NW25G32   29.94R
SIDNEY         SUNNY     56  15  20 NW24G32   29.95S

...WESTERN AND NORTH CENTRAL NEBRASKA...

CITY           SKY/WX    TMP DP  RH WIND       PRES   REMARKS
VALENTINE      SUNNY     57  31  37 NW16G26   29.84R
AINSWORTH      SUNNY     53  36  51 NW21G26   29.85R
ONEILL         CLOUDY    49  38  65 NW17G24   29.83S
BROKEN BOW     CLOUDY    53  39  59 NW18G28   29.88R
IMPERIAL       SUNNY     62  23  22 NW18G28   29.93R
NORTH PLATTE   SUNNY     59  38  45 N15G21    29.90S
MCCOOK         MOSUNNY   62  32  32 N17G26    29.91F

...EASTERN NEBRASKA...

CITY           SKY/WX    TMP DP  RH WIND       PRES   REMARKS
NORFOLK        CLOUDY    54  40  59 NW20G32   29.77R
SO SIOUX CITY  CLOUDY    58  46  64 NW13G24   29.72R
TEKAMAH        CLOUDY    62  46  55 NW16G28   29.70R
COLUMBUS       CLOUDY    58  40  51 NW23G31   29.79R
ALBION         CLOUDY    55  40  57 NW22G35   29.82R
OMAHA EPPLEY   PTSUNNY   75  62  64 S15       29.66S
OFFUTT AFB     PTSUNNY   73  63  72 S8        29.66S
MILLARD        CLOUDY    76  62  60 W15G25    29.68R
LINCOLN        MOSUNNY   66  45  46 NW24G33   29.74R
NEBRASKA CITY  CLOUDY    75  64  67 SW25G37   29.69S
BEATRICE       MOSUNNY   70  49  48 NW25      29.75R
FALLS CITY     CLOUDY    74  63  68 S21G29    29.73S

...NORTHERN KANSAS...

CITY           SKY/WX    TMP DP  RH WIND       PRES   REMARKS
GOODLAND       SUNNY     61  21  21 N24G38    29.94R
HILL CITY      CLOUDY    62  36  37 N29G39    29.92R
NORTON         CLOUDY    61  28  29 NW23G33   29.90R
PHILLIPSBURG   PTSUNNY   64  39  39 NW17G24   29.89R
SMITH CENTER     N/A     64  39  39 NW20      29.86R
HAYS           CLOUDY    65  39  38 NW21G26   29.86R
RUSSELL        MOSUNNY   70  40  33 N21G30    29.83S
CONCORDIA      PTSUNNY   67  44  43 NW18G25   29.81R
SALINA         CLOUDY    71  49  45 NW21G28   29.79S
TOPEKA         CLOUDY    75  65  70 S16G28    29.76F



USA.gov is the U.S. government's official web portal to all federal, state and local government web resources and services.